THORAD DELTA 1 DEB, 8166

Orbit data source: Space-Track

THORAD DELTA 1 DEB, 8166 is space debris in SSO originally from a launch on Fri, 15 Nov 1974 UTC launched from the Air Force Western Test Range (AFWTR). Debris objects in space refer to the collection of defunct objects orbiting the Earth. Examples of debris include non-operational satellites, rocket bodies, and fragments generated from explosions, collisions, or faulty payload assembly.

Loading next visibility...
Identifier
8166, 1974-089AG
Orbit
SSO
Last TLE update
3 days ago
Origin
Manufacturer
Unknown
Mission
Spacecraft
Bus & Motor
Unknown
Mass
Unknown
Launch date (UTC)
1974-11-15 (50 years ago)
Launch vehicle
Unknown
Launch site
Air Force Western Test Range (AFWTR)
Object type
Payload
Rocket body
Debris
Shape & HBR
Unknown
Radar Cross Section
Small (<0.1 m²)

Expand to show TLE details & history

TLE from 3 days ago
0 THORAD DELTA 1 DEB
1  8166U 74089AG  25125.90590961  .00000110  00000-0  10043-2 0  9995
2  8166 101.9949 114.6340 0040382  53.6316 336.5958 12.51580777303408
Epoch: 2025-05-05T21:44Z
Definitive object data (Epoch: 2025-05-05T21:44:30.59Z)
Latitude
29.36906°
Longitude
-82.33923°
Altitude
1,432.224 km
Speed
7.161 km/s
True Right ascension
07h 11m 12s
True Declination
29° 14' 06"
Sunlit
Object was in daylight at TLE epoch
Visualization TLE readout
Latitude
-47.18709°
Longitude
94.64376°
Altitude
1,507.537 km
Speed
7.096 km/s
Apparent Right ascension
22h 05m 10s
Apparent Declination
-55° 51' 53"
Sunlit
Object is in daylight
Visualization observer readout
Local Sidereal Time
13:35:45
Azimuth
133.029° SE
Elevation
-52.398°
Doppler factor
1
Orbital elements
Apogee altitude
1,487.083 km
Perigee altitude
1,423.816 km
Semi-major axis
7,833.586 km
Eccentricity
0.0040382
Inclination
101.9949°
RAAN
114.634°
Arg. of periapsis
53.6316°
True anomaly
336.41114°
Mean anomaly
336.5958°
Eccentric anomaly
336.50355°
Mean motion
3.13042 °/min
BSTAR
0.0010043
Orbital period
115 mins
Loading maneuver chart data...
Loading SW <> Apogee altitude chart data...
Loading historical data...
Loading historical data...
Loading historical data...
Loading historical data...
Loading historical data...
Loading historical data...
Loading historical data...

THORAD DELTA 1 DEB Visibility forecast

Observer location: undefined°, undefined°

Span
Click to sort rows by Start time (UTC) header in descending order
Start Az.
Max El. time (UTC)
Max El. Az.
Max El.
End time (UTC)
End Az.
11 mins2025-05-09 10:39:04.880Z47.219° ENE2025-05-09 10:45:04.880Z95.599° ESE20.839°2025-05-09 10:50:04.880Z136.616° SSE
14 mins2025-05-09 12:32:04.880Z13.088° NNE2025-05-09 12:38:04.880Z316.677° NNW43.95°2025-05-09 12:46:04.880Z208.194° SW
7 mins2025-05-09 14:27:04.880Z335.322° NNW2025-05-09 14:30:04.880Z310.634° NW16.803°2025-05-09 14:34:04.880Z279.262° WNW
12 mins2025-05-09 21:40:04.880Z108.416° ESE2025-05-09 21:45:04.880Z58.763° ENE28.602°2025-05-09 21:52:04.880Z359.156° N
14 mins2025-05-09 23:31:04.880Z182.31° SSW2025-05-09 23:38:04.880Z269.315° W39.738°2025-05-09 23:45:04.880Z333.221° NNW
|